CZ-4C R/B

Satellite information

Favourite Embed

Satellite Type and Status

ROCKET BODYIN ORBIT

Key statistics

Satellite CZ-4C R/B at a glance.

Uptime

1560

Days in orbit

Revolutions

≈ 15.1

Per day

Orbit

SSO

Sun Synchronous Orbit

Inclination

98.4

Latest

Satellite identification and parameters

Extended collection of information and parameters for CZ-4C R/B.

Object identification

Identified? True

Debris? False

Object name: CZ-4C R/B

International designator: 2021-079B

Object number (NORAD): 49123

Object ID (CCSDS): 49123

Country: PEOPLES REPUBLIC OF CHINA (PRC)

Current information (Y/N): Y

RCS size: LARGE

Orbital parameters

Period: 95.485 minutes

Inclination: 98.3919 deg

SMA: 6920.192 km

Apoapsis: 617.206 km

Periapsis: 466.908 km

RAAN: 189.2865 deg

Eccentricy: 0.01085939

Argument of periapsis: 312.2253 deg

Mean anomaly: 46.9796 deg

Mean motion: 15.08084148 rev/day

Mean motion (dot): 0.00004873 rev/day2

B* drag term: 0.00028056545 1/REarth

Two-line elements (TLE)

Creation date: Dec. 14, 2025, 6:24 p.m.

Reference frame: TEME

Reference center: EARTH

Epoch: Dec. 14, 2025, 3:39 a.m. UTC

TLE line 0: 0 CZ-4C R/B

TLE line 1: 1 49123U 21079B 25348.15216502 .00004873 00000-0 28057-3 0 9999

TLE line 2: 2 49123 98.3919 189.2865 0108594 312.2253 46.9796 15.08084148233529

Live tracking on map

Real-time ground track for satellite CZ-4C R/B.

In-orbit conjunctions

A list of the most updated potential collisions computed for object CZ-4C R/B.

Target Orbit TCA Probability of collision Miss distance Type
H-2A R/B SSO 2025-12-17 22:45:35 0.0001560491 807.0 (m) ROCKET BODY
PEGASUS DEB LEO 2024-08-03 09:14:57 0.0001954908 49.0 (m) DEBRIS

Associated space launch

Gaofen (GF) is a series of Chinese civilian remote sensing satellites for the state-sponsored program China High-definition Earth Observation System (CHEOS). GF 5 is configured with six types of payloads, including visible and short-wave infra hyper-spectral camera, spectral imager, greenhouse gas detector, atmospheric environment infrared detector at very high spectral resolution, differential absorption spectrometer for atmospheric trace gas, and multi-angle polarization detector, with designed lifespan of 8 years. The satellite is based on the SAST-5000B bus. The instruments are: * Advanced Hyperspectral Imager (AHSI) * Visual and Infrared Multispectral Sensor (VIMS) * Greenhouse-gases Monitoring Instrument (GMI) * Atmospheric Infrared Ultraspectral (AIUS) * Environment Monitoring Instrument (EMI) * Directional Polarization Camera (DPC)

CZ-4C R/B was lifted into orbit during the mission ‘Long March 4C | Gaofen-5-02’, on board a Long March 4C space rocket.

The launch took place on Sept. 7, 2021, 3:01 a.m. from Launch Complex 9.

For more information about the launch, click the button.

Launch to space Long March 4C | Gaofen-5-02
Long March 4C | Gaofen-5-02

Agency: N/A

Status: Launch Successful

Launch date: Sept. 7, 2021, 3:01 a.m. UTC

Rocket: Long March 4C

Launch pad: Launch Complex 9

Location: Taiyuan Satellite Launch Center, People's Republic of China

...

Latest news about this satellite

News about space launch
Chang Zheng 4C lifts Gaofen-5-02 satellite to orbit

On Tuesday, September 7 China launched the second Gaofen-5 remote imagery satellite into a 705 km sun-synchronous orbit (SSO). The launch took place at 03:01 UTC on a Chang Zheng 4C and was conducted from Launch Complex 9 at the Taiyuan Satellite Launch C...

News about space launch
China launches Gaofen environmental monitoring satellite

China launched an Earth observation satellite on top of a Long March 4C rocket Tuesday to monitor land surfaces, water resources, and air quality.


Newsletter sign-up

Weekly statistics, charts and insights to help you stay on top of the space industry.